Showing default

EAGLET 1, 43790

Orbit data source: Space-Track

EAGLET 1, 43790 is a payload satellite owned by OHB-I (IT) in SSO that was launched on Mon, 03 Dec 2018 UTC via an FALCON 9 launch vehicle from the Air Force Western Test Range (AFWTR). Payload-class satellites include a variety of spacecraft equipped with specific instruments for various scientific and technological missions. These include communications satellites like Starlink; space stations such as the ISS; scientific satellites like the Hubble; Earth observation satellites from companies like Planet Labs, Umbra, and HawkEye 360; GPS; miniature CubeSats for education and research; and military/defense satellites.

Loading next visibility...
Identifier
43790, 2018-099AJ
Orbit
SSO
Last TLE update
12 hours ago
Origin
Manufacturer
OHB-I
Mission
Operational Commercial Technology
Bus & Motor
CUBESAT 3U, Unknown motor
Mass
5 kg wet, 5 kg dry
Launch date (UTC)
2018-12-03 (7 years ago)
Launch vehicle
FALCON 9
Launch site
Air Force Western Test Range (AFWTR)
Object type
Payload
Rocket body
Debris
Shape & HBR
Box + 2 Pan, 0.3 m
Radar Cross Section
0.035 m², Small (<0.1 m²)

Expand to show TLE details & history

TLE from 12 hours ago
0 EAGLET 1
1 43790U 18099AJ  25181.90074016  .00003421  00000-0  21876-3 0  9991
2 43790  97.4746 235.6634 0013533 114.5713 245.6928 15.09197552359285
Epoch: 2025-06-30T21:37Z
TLE epoch observation values (Epoch: 2025-06-30T21:37:03.949Z)
Latitude
-0.00004°
Longitude
-7.80696°
Altitude
545.589 km
Speed
7.587 km/s
True Right ascension
15h 42m 39s
True Declination
0° 00' 00"
Sunlit
Object was in full shadow at epoch
Visualization orbit readout
Latitude
23.67758°
Longitude
175.95324°
Altitude
534.819 km
Speed
7.601 km/s
Apparent Right ascension
06h 08m 11s
Apparent Declination
-8° 25' 33"
Sunlit
Object is in daylight
Visualization observer readout
Local Sidereal Time
21:04:59
Azimuth
63.576° ENE
Elevation
-39.641°
Doppler factor
1
Orbital elements
Apogee altitude
544.99 km
Perigee altitude
526.277 km
Semi-major axis
6,913.771 km
Eccentricity
0.00135
Inclination
97.4746°
RAAN
235.6634°
Arg. of periapsis
114.5713°
True anomaly
Unknown
Mean anomaly
245.6928°
Eccentric anomaly
Unknown
Mean motion
3.77547 °/min
Orbital period
95.35 mins
BSTAR
0.00021876
Loading maneuver chart data...
Loading SW <> Apogee altitude chart data...
Loading historical data...
Loading historical data...
Loading historical data...
Loading historical data...
Loading historical data...
Loading historical data...
Loading historical data...

EAGLET 1 Visibility forecast

Observer location: undefined°, undefined°

Span
Click to sort rows by Start time (UTC) header in descending order
Start Az.
Max El. time (UTC)
Max El. Az.
Max El.
End time (UTC)
End Az.
5 mins2025-07-01 15:41:42.055Z43.232° NE2025-07-01 15:44:42.055Z97.343° ESE21.05°2025-07-01 15:46:42.055Z137.394° SSE
4 mins2025-07-01 17:17:42.055Z320.305° NNW2025-07-01 17:18:42.055Z298.569° NW20.962°2025-07-01 17:21:42.055Z241.268° WSW
5 mins2025-07-02 03:59:42.055Z199.062° SSW2025-07-02 04:01:42.055Z268.735° W36.489°2025-07-02 04:04:42.055Z333.411° NNW
|